Showing default

XM-8, 48838

Orbit data source: Space-Track

XM-8, 48838 is a payload satellite owned by Sirius XM (US) in GEO that was launched on Sun, 06 Jun 2021 UTC via an FALCON 9 launch vehicle from the Air Force Eastern Test Range (AFETR). Payload-class satellites include a variety of spacecraft equipped with specific instruments for various scientific and technological missions. These include communications satellites like Starlink; space stations such as the ISS; scientific satellites like the Hubble; Earth observation satellites from companies like Planet Labs, Umbra, and HawkEye 360; GPS; miniature CubeSats for education and research; and military/defense satellites.

Loading next visibility...
Identifier
48838, 2021-049A
Orbit
GEO
Country
Flag of USUS
Related business
Manufacturer
Maxar Space Sol
Mission
Operational Commercial Communications
Bus & Motor
LS-1300, R-4D
Mass
~7,000 kg wet, ~2,884 kg dry
Launch date (UTC)
2021-06-06 (5 years ago)
Launch vehicle
FALCON 9
Launch site
Air Force Eastern Test Range (AFETR)
Object type
Payload
Rocket body
Debris
Shape & HBR
Box + 2 Pan, 15.0 m
Radar Cross Section
81.349 m², Large (>1 m²)

Expand to show TLE details & history
Last TLE update: 11 hours ago

TLE from 11 hours ago
0 XM-8
1 48838U 21049A   26095.17475478 -.00000204  00000-0  00000-0 0  9999
2 48838   0.0376  43.8142 0004750 358.7940 128.6261  1.00271739 17861
Epoch: 2026-04-05T04:11Z
TLE epoch observation values (Epoch: 2026-04-05T04:11:38.812Z)
Latitude
-0.00698°
Longitude
-85.11252°
Altitude
35,798.709 km
Speed
3.074 km/s
True Right ascension
11h 25m 07s
True Declination
0° 00' 25"
Sunlit
Object was in daylight at epoch
Visualization orbit readout
Latitude
Unknown
Longitude
Unknown
Altitude
Unknown
Speed
Unknown
Apparent Right ascension
Unknown
Apparent Declination
Unknown
Sunlit
N/A
Visualization observer readout
Local Sidereal Time
21:10:05
Azimuth
Unknown
Elevation
Unknown
Doppler factor
Unknown
Orbital elements
Apogee altitude
35,807.707 km
Perigee altitude
35,767.649 km
Semi-major axis
42,165.815 km
Eccentricity
0.00048
Inclination
0.0376°
RAAN
43.8142°
Arg. of periapsis
358.794°
True anomaly
128.66861°
Mean anomaly
128.6261°
Eccentric anomaly
128.64736°
Mean motion
0.25067 °/min
Orbital period
1,436.15 mins
BSTAR
0
Loading maneuver chart data...
Computing Atmospheric mass density...
Loading historical data...
Loading historical data...
Loading historical data...
Loading historical data...
Loading historical data...
Loading historical data...
Loading historical data...
Other satellites on launch #49 in the year 2021 (2021-06-06 UTC)

Documentation

Showing up to 5 results
|